Radiation Dose at Monitoring Post of Fukushima Daini Nuclear Power Station
Date,Time,MP-1(microSv/h),MP-2(microSv/h),MP-3(microSv/h),MP-4(microSv/h),MP-5(microSv/h),MP-6(microSv/h),MP-7(microSv/h),Wind Direction,Wind Velocity(m/s),Rain
2021/06/23,00:00,0.167,0.155,0.247,0.242,0.237,0.133,0.082,-,CALM,No
2021/06/23,00:10,0.169,0.154,0.247,0.238,0.235,0.132,0.083,-,CALM,No
2021/06/23,00:20,0.166,0.155,0.248,0.240,0.235,0.134,0.082,-,CALM,No
2021/06/23,00:30,0.169,0.155,0.246,0.238,0.236,0.133,0.083,northeast,1.0,No
2021/06/23,00:40,0.167,0.156,0.248,0.241,0.233,0.132,0.082,north,1.0,No
2021/06/23,00:50,0.167,0.156,0.247,0.239,0.238,0.132,0.082,northeast,1.1,No
2021/06/23,01:00,0.167,0.154,0.250,0.241,0.235,0.132,0.082,northeast,0.9,No
2021/06/23,01:10,0.167,0.155,0.247,0.240,0.237,0.133,0.082,east-northeast,0.9,No
2021/06/23,01:20,0.168,0.154,0.249,0.239,0.235,0.133,0.082,-,CALM,No
2021/06/23,01:30,0.167,0.155,0.247,0.240,0.235,0.132,0.082,east,0.6,No
2021/06/23,01:40,0.169,0.154,0.247,0.238,0.236,0.132,0.083,-,CALM,No
2021/06/23,01:50,0.166,0.156,0.248,0.240,0.234,0.132,0.083,-,CALM,No
2021/06/23,02:00,0.168,0.155,0.246,0.238,0.237,0.133,0.083,-,CALM,No
2021/06/23,02:10,0.167,0.155,0.249,0.240,0.235,0.132,0.081,west-southwest,1.0,No
2021/06/23,02:20,0.166,0.153,0.246,0.239,0.236,0.133,0.082,west-northwest,0.6,No
2021/06/23,02:30,0.167,0.155,0.248,0.240,0.235,0.132,0.081,northwest,0.8,No
2021/06/23,02:40,0.166,0.153,0.246,0.239,0.234,0.132,0.082,north-northwest,0.8,No
2021/06/23,02:50,0.167,0.155,0.247,0.239,0.235,0.132,0.082,north-northeast,0.6,No
2021/06/23,03:00,0.165,0.154,0.244,0.239,0.234,0.132,0.082,-,CALM,No
2021/06/23,03:10,0.167,0.154,0.249,0.238,0.236,0.133,0.083,-,CALM,No
2021/06/23,03:20,0.167,0.155,0.246,0.240,0.234,0.131,0.082,-,CALM,No
2021/06/23,03:30,0.166,0.154,0.247,0.237,0.235,0.133,0.083,-,CALM,No
2021/06/23,03:40,0.167,0.155,0.246,0.240,0.235,0.131,0.081,-,CALM,No
2021/06/23,03:50,0.166,0.155,0.248,0.239,0.234,0.133,0.082,-,CALM,No
2021/06/23,04:00,0.168,0.155,0.247,0.240,0.237,0.132,0.082,-,CALM,No
2021/06/23,04:10,0.167,0.155,0.247,0.238,0.235,0.132,0.082,-,CALM,No
2021/06/23,04:20,0.167,0.155,0.249,0.240,0.238,0.133,0.082,-,CALM,No
2021/06/23,04:30,0.168,0.154,0.247,0.240,0.236,0.132,0.082,-,CALM,No
2021/06/23,04:40,0.167,0.155,0.247,0.239,0.236,0.133,0.082,north,0.7,No
2021/06/23,04:50,0.168,0.154,0.246,0.240,0.235,0.132,0.082,north,0.9,No
2021/06/23,05:00,0.165,0.155,0.248,0.237,0.235,0.132,0.082,north-northwest,0.8,No
2021/06/23,05:10,0.168,0.154,0.245,0.240,0.237,0.131,0.082,north-northwest,1.2,No
2021/06/23,05:20,0.166,0.155,0.247,0.238,0.234,0.132,0.081,north-northwest,1.8,No
2021/06/23,05:30,0.167,0.155,0.246,0.240,0.236,0.132,0.082,north-northwest,1.8,No
2021/06/23,05:40,0.167,0.155,0.248,0.238,0.236,0.132,0.082,north-northwest,2.6,No
2021/06/23,05:50,0.165,0.155,0.246,0.239,0.234,0.133,0.083,north-northwest,2.2,No
2021/06/23,06:00,0.167,0.153,0.245,0.239,0.237,0.133,0.082,north-northwest,3.0,No
2021/06/23,06:10,0.166,0.155,0.247,0.239,0.234,0.132,0.084,west-northwest,0.7,No
2021/06/23,06:20,0.168,0.154,0.247,0.240,0.237,0.133,0.083,north-northeast,1.0,Yes
2021/06/23,06:30,0.168,0.154,0.248,0.238,0.236,0.132,0.082,north-northwest,2.2,Yes
2021/06/23,06:40,0.166,0.155,0.246,0.239,0.235,0.132,0.084,north-northwest,3.7,No
2021/06/23,06:50,0.169,0.154,0.247,0.239,0.237,0.133,0.083,north-northwest,4.1,No
2021/06/23,07:00,0.167,0.156,0.247,0.237,0.235,0.132,0.083,north-northwest,3.3,No
2021/06/23,07:10,0.167,0.154,0.246,0.240,0.238,0.133,0.082,north,3.0,Yes
2021/06/23,07:20,0.168,0.155,0.248,0.237,0.236,0.132,0.083,north,2.5,Yes
2021/06/23,07:30,0.167,0.155,0.245,0.239,0.233,0.132,0.082,north-northeast,2.8,No
2021/06/23,07:40,0.169,0.154,0.248,0.239,0.237,0.133,0.082,north-northeast,3.7,No
2021/06/23,07:50,0.167,0.155,0.246,0.237,0.235,0.131,0.081,north-northeast,3.0,No
2021/06/23,08:00,0.166,0.154,0.245,0.239,0.233,0.132,0.083,north,3.1,No
2021/06/23,08:10,0.167,0.154,0.245,0.238,0.237,0.132,0.081,north-northwest,3.2,No
2021/06/23,08:20,0.165,0.153,0.246,0.235,0.234,0.132,0.082,north-northwest,1.7,No
2021/06/23,08:30,0.166,0.152,0.244,0.238,0.231,0.131,0.081,north,2.4,No
2021/06/23,08:40,0.166,0.154,0.245,0.237,0.234,0.131,0.080,north-northwest,2.6,No
2021/06/23,08:50,0.165,0.154,0.245,0.235,0.236,0.131,0.081,north,2.3,No
2021/06/23,09:00,0.165,0.151,0.243,0.237,0.234,0.131,0.081,north-northeast,2.3,No
2021/06/23,09:10,0.166,0.153,0.243,0.238,0.232,0.131,0.081,north-northeast,3.6,No
2021/06/23,09:20,0.165,0.154,0.245,0.236,0.233,0.131,0.081,north-northeast,2.3,No
2021/06/23,09:30,0.167,0.152,0.244,0.236,0.237,0.131,0.081,north-northeast,2.1,No
2021/06/23,09:40,0.165,0.154,0.245,0.238,0.235,-,0.082,north-northeast,3.3,No
2021/06/23,09:50,0.165,0.153,0.248,0.238,0.233,-,0.081,north-northeast,2.6,No
2021/06/23,10:00,0.167,0.153,0.246,0.236,0.231,-,0.082,north-northeast,2.2,No
2021/06/23,10:10,0.166,0.153,0.243,0.236,0.235,-,0.082,north-northeast,2.3,No
2021/06/23,10:20,0.165,0.154,0.246,0.239,0.235,-,0.081,north-northeast,1.6,No
2021/06/23,10:30,0.168,0.152,0.247,0.238,0.234,-,0.080,northeast,1.9,No
2021/06/23,10:40,0.165,0.153,0.245,0.236,0.232,-,0.081,northeast,2.1,No
2021/06/23,10:50,0.164,0.154,0.243,0.234,0.233,-,0.081,north-northeast,1.7,No
2021/06/23,11:00,0.167,0.153,0.247,0.240,0.236,-,0.081,north-northeast,2.7,No
2021/06/23,11:10,0.166,0.152,0.247,0.238,0.235,-,0.080,northeast,2.2,No
2021/06/23,11:20,0.164,0.154,0.245,0.236,0.234,-,0.080,northeast,3.2,No
2021/06/23,11:30,0.165,0.154,0.243,0.236,0.232,-,0.081,east-northeast,2.8,No
2021/06/23,11:40,0.167,0.153,0.245,0.238,0.232,-,0.081,east-northeast,3.2,No
2021/06/23,11:50,0.164,0.154,0.246,0.238,0.235,-,0.081,east-northeast,3.2,No
2021/06/23,12:00,0.165,0.154,0.245,0.236,0.235,-,0.081,northeast,3.5,No
2021/06/23,12:10,0.167,0.153,0.243,0.236,0.234,-,0.081,northeast,2.8,No
2021/06/23,12:20,0.166,0.153,0.246,0.238,0.233,-,0.081,east-northeast,2.6,No
2021/06/23,12:30,0.165,0.155,0.248,0.239,0.232,-,0.080,northeast,1.7,No
2021/06/23,12:40,0.166,0.154,0.245,0.237,0.235,-,0.081,northeast,1.0,No
2021/06/23,12:50,0.166,0.153,0.245,0.235,0.235,-,0.081,northeast,1.4,No
2021/06/23,13:00,0.165,0.154,0.248,0.239,0.233,-,0.081,northeast,1.8,No
2021/06/23,13:10,0.167,0.154,0.245,0.239,0.234,-,0.080,north,1.6,No
2021/06/23,13:20,0.166,0.153,0.244,0.236,0.237,-,0.081,north,1.3,No
2021/06/23,13:30,0.165,0.154,0.246,0.239,0.234,-,0.081,east-northeast,1.9,No
2021/06/23,13:40,0.166,0.155,0.246,0.239,0.233,-,0.081,east-northeast,1.8,Yes
2021/06/23,13:50,0.167,0.154,0.244,0.238,0.238,-,0.083,north-northeast,1.6,Yes
2021/06/23,14:00,0.168,0.154,0.247,0.239,0.235,-,0.083,north-northwest,1.3,Yes
2021/06/23,14:10,0.168,0.155,0.245,0.236,0.234,-,0.083,north-northwest,3.3,Yes
2021/06/23,14:20,0.166,0.156,0.245,0.235,0.235,-,0.084,northwest,5.0,Yes
2021/06/23,14:30,0.168,0.155,0.245,0.238,0.234,-,0.083,north-northwest,4.1,No
2021/06/23,14:40,0.167,0.154,0.243,0.235,0.235,-,0.083,north-northwest,3.2,No
2021/06/23,14:50,0.167,0.154,0.245,0.237,0.234,-,0.083,north,2.4,No
2021/06/23,15:00,0.165,0.153,0.242,0.237,0.232,-,0.081,north,3.2,No
2021/06/23,15:10,0.164,0.154,0.244,0.233,0.235,-,0.081,north,3.7,No
2021/06/23,15:20,0.166,0.153,0.243,0.236,0.233,0.129,0.082,north,3.9,No
2021/06/23,15:30,0.164,0.152,0.241,0.235,0.230,0.129,0.081,north,4.7,No
2021/06/23,15:40,0.165,0.152,0.242,0.234,0.235,0.129,0.081,north,4.8,No
2021/06/23,15:50,0.165,0.151,0.241,0.237,0.232,0.129,0.080,north,4.8,No
2021/06/23,16:00,0.165,0.151,0.241,0.232,0.230,0.129,0.081,north,5.2,No
2021/06/23,16:10,0.165,0.152,0.243,0.235,0.234,0.129,0.081,north,4.8,No
2021/06/23,16:20,0.164,0.151,0.241,0.234,0.232,0.129,0.080,north,3.0,No
2021/06/23,16:30,0.165,0.152,0.244,0.233,0.231,0.130,0.080,north,3.6,No
2021/06/23,16:40,0.164,0.151,0.241,0.235,0.234,0.129,0.080,north,3.8,No
2021/06/23,16:50,0.162,0.153,0.242,0.234,0.231,0.130,0.079,north,3.0,No
2021/06/23,17:00,0.165,0.152,0.243,0.234,0.233,0.129,0.080,north,3.2,No
2021/06/23,17:10,0.163,0.152,0.241,0.236,0.233,0.129,0.080,north,3.7,No
2021/06/23,17:20,0.164,0.152,0.244,0.232,0.231,0.129,0.081,north,4.3,No
2021/06/23,17:30,0.164,0.152,0.240,0.235,0.234,0.129,0.081,north,4.0,Yes
2021/06/23,17:40,0.163,0.152,0.242,0.235,0.231,0.130,0.081,north,3.7,Yes
2021/06/23,17:50,0.165,0.151,0.241,0.233,0.231,0.129,0.081,north-northwest,4.9,No
2021/06/23,18:00,0.163,0.153,0.243,0.234,0.233,0.130,0.081,north-northwest,4.3,Yes
2021/06/23,18:10,0.166,0.151,0.242,0.233,0.230,0.130,0.081,north-northwest,2.9,Yes
2021/06/23,18:20,0.164,0.152,0.243,0.235,0.234,0.130,0.081,north-northwest,3.4,No
2021/06/23,18:30,0.164,0.151,0.242,0.232,0.231,0.130,0.082,north,3.1,No
2021/06/23,18:40,0.165,0.152,0.242,0.236,0.233,0.130,0.081,north,3.3,No
2021/06/23,18:50,0.164,0.151,0.243,0.233,0.232,0.129,0.080,north,5.1,No
2021/06/23,19:00,0.164,0.152,0.241,0.235,0.231,0.130,0.080,north,4.4,No
2021/06/23,19:10,0.163,0.152,0.243,0.235,0.231,0.128,0.080,north,4.4,No
2021/06/23,19:20,0.165,0.151,0.240,0.233,0.230,0.130,0.081,north,4.4,No
2021/06/23,19:30,0.164,0.152,0.243,0.235,0.233,0.128,0.080,north-northwest,4.1,No
2021/06/23,19:40,0.164,0.151,0.241,0.232,0.229,0.129,0.080,north-northwest,4.4,No
2021/06/23,19:50,0.164,0.151,0.242,0.235,0.232,0.128,0.080,north-northwest,4.1,No
2021/06/23,20:00,0.163,0.151,0.242,0.233,0.232,0.128,0.080,north,4.4,No
2021/06/23,20:10,0.164,0.152,0.241,0.234,0.230,0.129,0.081,north,3.8,No
2021/06/23,20:20,0.164,0.153,0.243,0.233,0.232,0.128,0.080,north,3.2,No
2021/06/23,20:30,0.165,0.151,0.241,0.233,0.230,0.128,0.080,north,3.1,No
2021/06/23,20:40,0.164,0.151,0.242,0.235,0.233,0.129,0.080,north,4.2,No
2021/06/23,20:50,0.164,0.151,0.240,0.233,0.231,0.128,0.080,north,4.2,No
2021/06/23,21:00,0.164,0.151,0.244,0.235,0.231,0.129,0.081,north-northwest,4.3,No
2021/06/23,21:10,0.164,0.151,0.241,0.233,0.230,0.128,0.081,north-northwest,4.4,No
2021/06/23,21:20,0.165,0.153,0.242,0.235,0.230,0.128,0.081,north-northwest,3.6,No
2021/06/23,21:30,0.163,0.151,0.240,0.233,0.232,0.128,0.080,north-northwest,3.5,No
2021/06/23,21:40,0.165,0.152,0.242,0.234,0.229,0.128,0.080,north,2.6,No
2021/06/23,21:50,0.163,0.152,0.241,0.233,0.232,0.129,0.080,north,3.7,No
2021/06/23,22:00,0.164,0.152,0.241,0.232,0.230,0.127,0.080,north,3.6,No
2021/06/23,22:10,0.164,0.152,0.242,0.234,0.230,0.129,0.080,north,3.1,No
2021/06/23,22:20,0.164,0.151,0.242,0.232,0.232,0.129,0.080,north,3.0,No
2021/06/23,22:30,0.164,0.152,0.243,0.234,0.230,0.128,0.080,north,3.3,No
2021/06/23,22:40,0.164,0.151,0.241,0.232,0.234,0.129,0.080,north-northwest,3.4,No
2021/06/23,22:50,0.165,0.152,0.243,0.234,0.229,0.128,0.080,north,3.4,No
2021/06/23,23:00,0.163,0.151,0.241,0.233,0.232,0.128,0.081,north,3.3,No
2021/06/23,23:10,0.165,0.152,0.244,0.232,0.231,0.128,0.080,north-northwest,3.1,No
2021/06/23,23:20,0.163,0.152,0.241,0.234,0.230,0.128,0.081,north,3.0,No
2021/06/23,23:30,0.165,0.152,0.243,0.233,0.233,0.127,0.080,north,3.5,No
2021/06/23,23:40,0.165,0.151,0.242,0.235,0.229,0.127,0.080,north,3.7,No
2021/06/23,23:50,0.164,0.152,0.242,0.232,0.231,0.127,0.080,north-northwest,3.5,No
